Stations météo

réclame
Mon MeteoGroup
Thorney Island, Grande-Bretagne (3872): Température de l'air & dewpoint: 05.12.2017 04:00:00 - 11.12.2017 04:00:00 (GMT)Thorney Island, Grande-Bretagne (3872): Température de l'air -20cm & Température de l'air -100cm: 05.12.2017 04:00:00 - 11.12.2017 04:00:00 (GMT)Thorney Island, Grande-Bretagne (3872): Vitesse du vent & gusts: 05.12.2017 04:00:00 - 11.12.2017 04:00:00 (GMT)Thorney Island, Grande-Bretagne (3872): Direction du vent: 05.12.2017 04:00:00 - 11.12.2017 04:00:00 (GMT)Thorney Island, Grande-Bretagne (3872): reduced air pressure: 05.12.2017 04:00:00 - 11.12.2017 04:00:00 (GMT)Thorney Island, Grande-Bretagne (3872): visibility: 05.12.2017 04:00:00 - 11.12.2017 04:00:00 (GMT)Thorney Island, Grande-Bretagne (3872): Quantités de précipitations: 05.12.2017 04:00:00 - 11.12.2017 04:00:00 (GMT)
Date & Time tt [°C] td [°C] tt -20cm [°C] tt -100cm [°C] ff [km/h] ff [knt] fx [km/h] fx [knt] dd ppp [hPa] vv [km] rr [mm]
11.12.2017 04:00:00 - - - - - - - - - - - -
11.12.2017 03:00:00 2,1 1,3 - - 26 14 - - NNE 977,8 10 0,0
11.12.2017 02:00:00 2,0 1,3 - - 18 10 - - NNE 979,1 14 0,0
11.12.2017 01:00:00 2,2 1,4 - - 21 11 - - NE - - 0,0
11.12.2017 00:00:00 2,0 1,1 - - 16 9 - - ENE - - 0,0
10.12.2017 23:00:00 1,2 0,6 - - 15 8 - - NE 979,4 15 0,0
10.12.2017 22:00:00 1,0 0,5 - - 11 6 - - ENE 980,0 23 0,0
10.12.2017 21:00:00 1,4 0,7 - - 8 4 - - E 979,9 35 0,0
10.12.2017 20:00:00 1,5 0,8 - - 8 4 - - E 980,1 50 0,0
10.12.2017 19:00:00 1,8 1,0 - - 8 4 - - NNE 979,7 30 0,2
10.12.2017 18:00:00 2,2 1,4 - - 5 3 - - N 979,6 26 0,0
10.12.2017 17:00:00 2,5 1,5 - - 11 6 - - NW 978,9 18 0,2
10.12.2017 16:00:00 2,7 1,5 - - 16 9 - - WNW 978,6 45 0,0
10.12.2017 15:00:00 3,0 1,6 - - 21 11 - - WNW 977,6 50 0,0
10.12.2017 14:00:00 3,6 1,8 - - 37 20 61 33 WNW 976,8 30 0,2
10.12.2017 13:00:00 6,0 4,0 - - 39 21 78 42 W 975,9 35 1,2
10.12.2017 12:00:00 8,1 6,1 - - 61 33 98 53 W 973,9 2,8 0,6
10.12.2017 11:00:00 8,6 5,6 - - 57 31 83 45 WSW 973,8 8 0,2
10.12.2017 10:00:00 8,4 5,4 - - 55 30 85 46 WSW 974,3 4,6 0,4
10.12.2017 09:00:00 8,2 7,0 6,7 10,0 41 22 74 40 W 974,9 22 1,2
10.12.2017 08:00:00 8,9 8,5 - - 31 17 46 25 WSW 974,4 10 0,6
10.12.2017 07:00:00 6,9 6,5 - - 26 14 52 28 E 976,2 8 5,6
10.12.2017 06:00:00 6,3 5,6 - - 35 19 55 30 SE 981,9 5 3,2
10.12.2017 05:00:00 6,4 5,8 - - 39 21 50 27 SE 985,8 4,3 3,8
10.12.2017 04:00:00 6,3 5,4 - - 37 20 46 25 SE 989,9 11 1,6
10.12.2017 03:00:00 6,2 4,9 - - 31 17 - - SSE 993,7 9 0,4
10.12.2017 02:00:00 6,5 4,6 - - 34 18 - - S 997,1 22 0,4
10.12.2017 01:00:00 2,3 1,5 - - 11 6 - - ENE 1000,0 8 0,4
10.12.2017 00:00:00 2,4 -0,3 - - 9 5 - - ENE 1003,0 19 0,0
09.12.2017 23:00:00 1,6 -0,2 - - 13 7 - - ENE 1004,8 18 0,0
09.12.2017 22:00:00 0,6 -0,7 - - 5 3 - - E 1006,8 11 0,0
09.12.2017 21:00:00 2,0 0,4 - - 5 3 - - ENE 1008,2 13 0,0
09.12.2017 20:00:00 2,0 0,6 - - 4 2 - - NE 1009,8 16 0,0
09.12.2017 19:00:00 2,2 -0,5 - - 2 1 - - NNE 1011,1 26 0,0
09.12.2017 18:00:00 3,2 -0,5 - - 5 3 - - WNW 1012,0 35 0,0
09.12.2017 17:00:00 3,8 -0,2 - - 9 5 - - W 1012,7 35 0,0
09.12.2017 16:00:00 3,7 -0,5 - - 13 7 - - W 1013,7 35 0,0
09.12.2017 15:00:00 3,9 -1,0 - - 13 7 - - W 1014,3 45 0,0
09.12.2017 14:00:00 4,4 0,2 - - 15 8 - - W 1015,3 30 0,0
09.12.2017 13:00:00 4,1 0,6 - - 9 5 - - W 1016,6 35 0,0
09.12.2017 12:00:00 3,4 0,2 - - 11 6 - - W 1017,6 27 0,0
09.12.2017 11:00:00 2,8 0,3 - - 9 5 - - WNW 1018,6 30 0,0
09.12.2017 10:00:00 1,1 -0,6 - - 4 2 - - WNW 1019,2 40 0,0
09.12.2017 09:00:00 -0,3 -1,1 7,2 10,2 8 4 - - WNW 1019,5 24 0,0
09.12.2017 08:00:00 -0,6 -1,7 - - 4 2 - - NW 1019,7 30 0,0
09.12.2017 07:00:00 -0,2 -1,3 - - 9 5 - - W 1019,9 30 0,0
09.12.2017 06:00:00 0,3 -1,2 - - 13 7 - - W 1020,0 45 0,0
09.12.2017 05:00:00 -0,1 -1,5 - - 8 4 - - WNW 1020,2 45 0,0
09.12.2017 04:00:00 -0,1 -1,4 - - 9 5 - - WNW 1020,1 45 0,0
09.12.2017 03:00:00 0,7 -1,2 - - 13 7 - - W 1020,5 45 0,0
09.12.2017 02:00:00 0,6 -1,1 - - 13 7 - - WNW 1020,3 45 0,0
09.12.2017 01:00:00 1,2 -1,0 - - 16 9 - - WNW 1020,2 45 0,0
09.12.2017 00:00:00 0,9 -1,1 - - 13 7 - - WNW 1020,4 27 0,0
08.12.2017 23:00:00 1,1 -1,1 - - 13 7 - - W 1020,0 35 0,0
08.12.2017 22:00:00 1,8 -0,9 - - 21 11 - - W 1019,8 27 0,0
08.12.2017 21:00:00 2,0 -1,4 - - 21 11 - - W 1019,9 40 0,0
08.12.2017 20:00:00 2,0 -1,4 - - 22 12 - - W 1019,7 40 0,0
08.12.2017 19:00:00 2,2 -1,0 - - 16 9 - - W 1019,7 35 0,0
08.12.2017 18:00:00 2,5 -1,1 - - 22 12 - - W 1019,3 50 0,0
08.12.2017 17:00:00 3,2 -1,2 - - 24 13 - - W 1019,1 50 0,0
08.12.2017 16:00:00 3,9 -1,3 - - 22 12 48 26 WNW 1018,8 35 0,0
08.12.2017 15:00:00 4,9 -1,7 - - 29 16 54 29 NW 1018,5 30 0,0
08.12.2017 14:00:00 4,7 -1,3 - - 39 21 54 29 WNW 1018,0 45 0,0
08.12.2017 13:00:00 4,7 -0,1 - - 31 17 - - WNW 1017,9 21 0,0
08.12.2017 12:00:00 4,7 0,3 - - 29 16 46 25 WNW 1018,0 35 0,0
08.12.2017 11:00:00 4,0 -0,1 - - 22 12 - - WNW 1018,1 45 0,0
08.12.2017 10:00:00 3,9 0,4 - - 24 13 - - WNW 1017,6 50 0,0
08.12.2017 09:00:00 3,1 0,3 8,7 10,2 18 10 - - W 1016,9 50 0,0
08.12.2017 08:00:00 3,0 -0,2 - - 21 11 - - WNW 1015,4 45 0,0
08.12.2017 07:00:00 3,5 -0,4 - - 31 17 46 25 W 1014,6 30 0,0
08.12.2017 06:00:00 3,3 -0,6 - - 28 15 - - W 1014,5 35 0,0
08.12.2017 05:00:00 3,6 -0,4 - - 24 13 - - W 1014,3 40 0,0
08.12.2017 04:00:00 4,2 -0,3 - - 31 17 46 25 W 1014,1 35 0,0
08.12.2017 03:00:00 4,2 0,6 - - 29 16 - - W 1014,3 35 0,0
08.12.2017 02:00:00 4,7 1,3 - - 22 12 - - W 1014,3 26 0,0
08.12.2017 01:00:00 4,6 1,4 - - 18 10 - - W 1014,5 30 0,0
08.12.2017 00:00:00 4,7 1,1 - - 21 11 - - W 1014,6 29 0,0
07.12.2017 23:00:00 4,4 1,7 - - 16 9 - - W 1014,4 19 0,0
07.12.2017 22:00:00 5,1 1,6 - - 15 8 - - W 1014,4 21 0,0
07.12.2017 21:00:00 5,8 1,8 - - 22 12 - - WNW 1014,1 21 0,0
07.12.2017 20:00:00 6,1 2,3 - - 21 11 - - W 1013,7 21 0,0
07.12.2017 19:00:00 7,0 2,7 - - 22 12 - - W 1013,5 23 0,0
07.12.2017 18:00:00 7,8 3,3 - - 18 10 - - W 1012,6 18 0,0
07.12.2017 17:00:00 7,5 3,9 - - 16 9 - - WNW 1011,9 19 0,0
07.12.2017 16:00:00 7,9 4,0 - - 22 12 - - WNW 1010,7 23 0,0
07.12.2017 15:00:00 8,6 5,4 - - 21 11 - - WNW 1008,5 22 0,0
07.12.2017 14:00:00 8,9 6,5 - - 21 11 54 29 NNW 1008,2 35 0,2
07.12.2017 13:00:00 12,7 12,1 - - 24 13 - - W 1006,6 14 0,0
07.12.2017 12:00:00 12,3 12,0 - - 31 17 57 31 WSW 1006,6 11 2,2
07.12.2017 11:00:00 11,0 10,7 - - 48 26 65 35 SSW 1007,4 2,9 1,8
07.12.2017 10:00:00 10,9 10,5 - - 48 26 68 37 SSW 1008,0 3,3 0,2
07.12.2017 09:00:00 10,6 10,0 8,9 10,2 50 27 68 37 SSW 1008,8 4,4 0,2
07.12.2017 08:00:00 10,7 10,0 - - 44 24 70 38 SSW 1009,4 6 0,0
07.12.2017 07:00:00 10,5 9,6 - - 46 25 65 35 SSW 1010,3 8 0,0
07.12.2017 06:00:00 10,3 9,2 - - 50 27 67 36 SSW 1011,2 5 0,0
07.12.2017 05:00:00 10,4 9,0 - - 44 24 63 34 SSW 1012,7 10 0,0
07.12.2017 04:00:00 10,4 8,8 - - 44 24 67 36 SSW 1014,0 9 0,0
07.12.2017 03:00:00 9,8 8,8 - - 41 22 59 32 SSW 1015,5 5 0,2
07.12.2017 02:00:00 9,5 8,8 - - 42 23 59 32 SSW 1016,7 5 0,2
07.12.2017 01:00:00 9,2 8,5 - - 42 23 63 34 SSW 1017,9 3,4 0,2
07.12.2017 00:00:00 9,6 7,7 - - 44 24 59 32 SSW 1019,3 12 0,0
06.12.2017 23:00:00 9,6 7,6 - - 37 20 52 28 SSW 1020,3 13 0,0
06.12.2017 22:00:00 9,3 6,8 - - 39 21 54 29 SSW 1021,4 18 0,0
06.12.2017 21:00:00 - - - - 37 20 50 27 SSW - - 0,0
06.12.2017 20:00:00 - - - - 39 21 57 31 SSW - - 0,0
06.12.2017 19:00:00 - - - - 41 22 55 30 S - - 0,0
06.12.2017 18:00:00 - - - - 39 21 54 29 S - - 0,0
06.12.2017 17:00:00 - - - - 41 22 54 29 SSW - - 0,0
06.12.2017 16:00:00 - - - - 35 19 46 25 SSW - - 0,0
06.12.2017 15:00:00 - - - - 35 19 48 26 SSW - - 0,0
06.12.2017 14:00:00 - - - - 18 10 - - SW - - 0,0
06.12.2017 13:00:00 - - - - 21 11 - - SSW - - 0,0
06.12.2017 12:00:00 - - - - 22 12 - - SW - - 0,0
06.12.2017 11:00:00 10,5 6,4 - - 22 12 - - SW 1029,7 40 0,0
06.12.2017 10:00:00 10,2 7,0 - - 16 9 - - SW 1030,2 45 0,0
06.12.2017 09:00:00 10,2 6,8 8,4 10,2 21 11 - - SSW 1030,4 50 0,0
06.12.2017 08:00:00 9,8 5,7 - - 16 9 - - SSW 1030,7 50 0,0
06.12.2017 07:00:00 10,2 5,0 - - 22 12 - - SW 1030,8 50 0,0
06.12.2017 06:00:00 9,3 5,4 - - 15 8 - - SW 1031,3 50 0,0
06.12.2017 05:00:00 9,4 6,4 - - 16 9 - - SSW 1031,6 50 0,0
06.12.2017 04:00:00 8,9 6,3 - - 13 7 - - SSW 1032,1 50 0,0
06.12.2017 03:00:00 8,1 5,3 - - 8 4 - - SSW 1032,9 50 0,0
06.12.2017 02:00:00 7,9 5,3 - - 9 5 - - WSW 1033,3 35 0,0
06.12.2017 01:00:00 8,1 4,7 - - 11 6 - - W 1033,8 50 0,0
06.12.2017 00:00:00 8,2 5,0 - - 9 5 - - WSW 1034,3 50 0,0
05.12.2017 23:00:00 7,9 5,1 - - 8 4 - - WSW 1034,5 50 0,0
05.12.2017 22:00:00 8,0 4,9 - - 9 5 - - WSW 1034,8 50 0,0
05.12.2017 21:00:00 8,0 4,9 - - 8 4 - - WSW 1035,1 50 0,0
05.12.2017 20:00:00 8,2 4,5 - - 9 5 - - WSW 1035,3 50 0,0
05.12.2017 19:00:00 8,5 4,2 - - 13 7 - - WSW 1035,4 50 0,0
05.12.2017 18:00:00 8,6 4,6 - - 15 8 - - W 1035,4 50 0,0
05.12.2017 17:00:00 8,4 4,5 - - 11 6 - - W 1035,5 45 0,0
05.12.2017 16:00:00 8,5 4,9 - - 11 6 - - W 1035,6 40 0,0
05.12.2017 15:00:00 8,5 4,9 - - 11 6 - - WSW 1035,6 50 0,0
05.12.2017 14:00:00 8,7 4,8 - - 15 8 - - W 1035,8 40 0,0
05.12.2017 13:00:00 8,5 4,9 - - 13 7 - - W 1036,3 50 0,0
05.12.2017 12:00:00 8,3 4,8 - - 11 6 - - W 1036,8 50 0,0
05.12.2017 11:00:00 8,2 5,1 - - 8 4 - - WSW 1037,2 45 0,0
05.12.2017 10:00:00 7,6 5,0 - - 4 2 - - W 1037,2 40 0,0
05.12.2017 09:00:00 7,4 4,1 8,2 10,2 8 4 - - W 1037,2 50 0,0
05.12.2017 08:00:00 7,3 4,1 - - 8 4 - - W 1037,2 50 0,0
05.12.2017 07:00:00 7,4 4,1 - - 8 4 - - W 1036,8 50 0,0
05.12.2017 06:00:00 7,5 4,0 - - 8 4 - - WNW 1036,5 50 0,0
05.12.2017 05:00:00 7,8 4,1 - - 11 6 - - W 1036,3 50 0,0
05.12.2017 04:00:00 7,6 4,7 - - 8 4 - - W 1036,2 30 0,0

tt = Température de l'air
td = dewpoint
tt -20cm = Température de l'air -20cm
tt -100cm = Température de l'air -100cm
ff = Vitesse du vent
fx = gusts
dd = Direction du vent
ppp = reduced air pressure
vv = visibility
rr = Quantités de précipitations

stations d'obs. à proximité